Airfield :
LOGIN :

Register | Disclaimer

   EN    FR    IT 

 










Legend :    VFR   Marginal VFR   IFR   Intensive IFR   Very Intensive IFR
Visi :
Ceiling :
>= 8 km
>= 3000ft
5 to 8 km
1000 to 3000 ft
1500m to 5 km
500 to 1000 ft
800 to 1500m
200 to 500 ft
< 800m
< 200 ft
Symbols :   Thunderstorms  Fog  Heavy snow  Heavy precipitations  Wind > 20 kt
SIGMETs :     Misc.  Thunderstorms  Icing  Turbulence  Mountain Waves  Volcanic Ashes






- Airport Elevation : 1161 ft
- IATA code : RJL


LELO - Logroño-Agoncillo

CURRENT METAR :
  • 161600Z 32006KT 260V050 CAVOK 27/11 Q1020

EXPIRED METARs :
  • 161530Z 31008KT 220V030 CAVOK 27/11 Q1021
  • 161500Z VRB07KT CAVOK 28/10 Q1021
  • 161430Z 33006KT 250V050 CAVOK 28/09 Q1021
  • 161400Z 32007KT 260V060 CAVOK 27/08 Q1021
  • 161330Z VRB08KT CAVOK 28/09 Q1021

TAF TAF LELO
Valid from the 16 at 15:00 until the 17 at 00:00 UTC


161400Z 1615/1624 34009KT CAVOK



MET'MAP, your aeronautical weather chart ! - Copyright ORBIFLY December 2007 - Disclaimer

ORBIFLY MET'MAP TEAM :

Programming & Development : Alexandra Zaïnal
Concept & original design : Baudouin d'Aumeries
Assistance for programming : Marc-Olivier Méhu
Technical & hardware support : Manuel Goepfert

Contact : metmap@orbifly.com




SOURCES & CREDITS :

   NOAA